Wind_Speed
42 42 43 43 44 45 44 44 45 45 46 45 45 46 47 47 46 46 47 47 47 47 47 47 47 46 46 46 46 47 47 47 46 45 45 45 46 46 46 47 47 47 48
41 42 43 43 43 44 44 45 45 46 47 47 46 47 47 48 48 48 48 48 49 48 48 48 48 47 47 47 47 48 47 47 47 46 46 46 46 46 46 46 46 47 47
40 41 42 43 44 44 44 45 46 46 46 47 47 47 47 48 49 49 49 50 51 50 50 50 50 49 48 48 48 48 48 48 48 48 47 47 46 46 47 47 47 48 48
39 40 42 42 43 44 45 45 46 46 46 46 46 46 47 47 49 50 49 50 50 49 49 50 50 50 50 49 50 49 49 49 49 49 48 47 47 47 48 48 48 48 48
38 39 40 42 43 44 45 45 46 46 47 47 46 47 47 47 48 49 49 49 48 48 49 49 50 50 50 51 51 51 50 50 50 50 49 48 47 48 48 48 48 48 48
37 38 39 41 42 43 44 44 45 47 47 48 48 47 47 47 47 47 48 47 47 47 48 49 50 49 49 50 50 50 50 50 50 50 49 48 48 48 48 48 48 48 47
36 38 39 40 40 41 43 44 45 46 47 48 49 49 48 48 48 48 48 48 48 47 46 47 47 48 48 49 49 50 49 49 49 48 49 48 48 48 48 49 49 48 47
36 37 37 38 40 40 42 43 45 46 46 47 48 48 48 48 48 48 47 47 47 46 46 45 46 46 46 47 46 46 47 47 48 48 47 47 47 47 48 48 48 47 47
36 36 36 37 38 39 40 42 44 45 46 46 46 46 46 46 46 46 45 46 46 45 45 46 45 45 46 46 45 45 46 46 46 46 45 45 46 46 47 47 47 47 46
35 35 36 36 37 38 39 41 42 43 44 44 44 44 45 45 44 44 44 44 44 44 44 44 45 46 45 45 45 46 46 47 47 46 45 45 45 45 45 45 45 46 45
35 36 36 37 37 38 39 39 40 41 42 41 41 41 42 42 43 42 42 42 42 42 42 42 43 45 45 45 45 45 46 46 46 45 44 44 45 44 44 44 44 44 44
35 35 35 36 37 37 38 38 38 39 39 39 39 38 39 40 40 41 41 41 41 41 41 42 43 43 43 43 44 44 43 43 43 42 42 42 43 43 43 43 44 43 43
34 34 34 35 36 36 36 36 36 37 37 37 37 37 38 39 39 39 39 40 40 41 41 42 42 42 42 42 42 42 42 40 40 40 40 41 42 42 41 41 42 43 43
32 32 33 33 34 34 35 35 35 35 35 34 34 35 36 37 37 38 38 39 40 41 42 42 42 42 42 42 41 41 40 40 39 40 39 40 40 40 40 40 41 42 41
30 31 32 32 32 33 33 33 33 33 32 32 33 33 34 35 35 36 36 38 39 40 41 40 41 41 41 41 41 40 39 39 40 39 38 38 38 39 39 40 40 40 40
28 29 29 30 30 31 32 32 32 32 32 32 32 32 32 33 33 34 35 37 38 39 39 39 39 39 40 40 39 39 38 39 39 38 38 38 38 38 38 39 40 40 40
26 27 28 29 29 30 30 31 30 30 31 31 31 30 30 31 32 33 34 35 36 37 38 38 38 37 38 38 38 38 38 38 38 38 38 38 37 38 38 39 40 40 39
27 27 27 28 28 29 28 28 28 28 29 30 29 29 30 30 30 32 33 34 35 35 35 36 36 36 36 36 36 36 36 36 36 36 37 37 37 38 38 39 38 38 37
27 27 27 27 27 27 27 27 27 27 27 27 27 28 28 28 29 30 31 32 32 32 32 32 33 33 33 33 34 34 34 34 34 34 35 35 36 37 37 37 36 35 35
27 27 27 26 26 26 26 26 26 26 26 26 26 26 27 27 27 28 29 28 29 29 29 29 30 30 31 31 31 31 31 31 32 32 33 34 35 35 35 34 33 33 33
27 27 26 25 25 26 26 25 25 25 25 25 25 25 25 25 25 26 27 27 27 27 26 26 26 27 27 28 28 28 28 29 30 30 30 31 31 31 31 30 30 30 30
27 26 25 25 25 25 24 25 25 25 25 24 25 25 25 26 25 25 25 25 25 25 24 25 25 26 26 26 26 26 26 27 27 27 27 27 27 26 26 26 26 26 25
25 25 26 25 25 25 24 24 24 24 24 24 24 24 24 24 24 24 23 23 23 23 24 24 25 25 25 25 26 26 25 25 26 26 25 25 25 24 24 24 23 23 23
26 26 26 26 25 25 25 24 24 24 23 24 23 23 23 24 23 23 23 23 22 23 23 24 24 24 24 24 24 24 24 25 25 25 24 23 23 22 22 22 21 21 20
26 26 26 26 26 25 25 24 24 24 24 24 24 23 24 23 23 22 22 23 23 23 22 22 23 23 23 23 23 23 23 23 23 22 22 22 21 21 20 20 19 18 18
26 27 27 27 26 26 25 24 24 24 24 23 23 23 22 22 22 21 21 21 22 21 21 21 21 21 21 22 22 22 21 21 22 21 21 20 20 20 19 19 18 17 17
Wind_Direction
255 256 257 257 257 258 259 260 261 263 265 267 268 269 268 268 268 268 268 267 267 267 267 267 269 269 270 271 272 273 275 276 276 276 277 278 279 280 279 279 279 280 281
258 257 257 257 258 260 260 261 262 264 266 268 269 269 270 269 269 270 269 268 268 268 268 268 269 270 269 270 271 272 274 275 276 276 277 278 279 279 279 279 279 281 281
260 259 260 260 260 261 261 262 263 264 265 267 268 269 270 271 270 270 269 269 268 268 269 269 269 269 269 270 271 272 274 275 276 277 278 278 278 279 279 279 280 281 281
261 262 262 262 263 263 264 264 264 264 265 267 268 269 270 271 272 272 270 268 268 268 268 269 270 270 270 271 272 272 274 275 276 277 277 278 278 278 279 279 280 281 281
264 265 265 265 265 266 267 267 267 266 266 267 269 271 271 272 273 273 271 270 269 269 268 269 270 271 272 273 273 273 275 276 277 277 277 277 278 278 279 280 280 280 282
267 267 267 267 268 269 269 269 268 267 268 269 270 271 273 274 274 274 272 271 271 270 269 270 272 271 272 273 272 273 275 276 276 276 276 276 277 278 278 279 280 280 282
269 268 268 269 269 269 270 270 269 269 269 269 270 270 272 273 274 274 273 272 272 271 271 272 272 271 271 271 271 272 274 275 276 276 275 276 277 278 278 278 280 281 283
273 272 271 271 270 270 270 270 270 270 271 271 270 270 271 272 273 272 272 273 273 272 272 272 272 272 272 271 272 273 274 275 276 276 276 276 277 277 277 278 279 280 281
274 273 274 274 273 273 272 272 272 272 272 273 272 270 270 271 271 271 271 272 272 272 272 273 273 272 271 271 272 274 275 276 276 275 275 276 277 277 277 278 279 280 280
274 275 275 275 275 275 276 276 276 275 274 274 272 270 269 269 269 269 270 270 271 271 272 273 273 274 274 273 274 275 276 276 276 276 276 277 277 278 278 279 280 281 279
275 276 277 277 277 277 278 278 278 278 276 275 273 271 269 268 268 268 268 269 269 269 270 271 272 274 274 275 276 276 276 275 274 274 275 276 277 277 278 280 281 281 280
276 277 277 278 278 278 279 279 279 279 277 275 273 272 270 269 269 269 268 268 269 269 270 271 273 273 274 275 276 276 275 274 273 273 274 275 276 277 278 278 278 280 280
277 278 279 280 280 280 281 281 281 280 278 276 274 272 271 270 270 269 267 268 270 271 272 273 274 273 273 274 275 276 275 274 273 273 274 276 276 277 277 276 277 279 278
279 279 281 282 282 283 282 283 283 282 279 278 277 275 273 272 270 269 269 269 271 272 274 275 274 272 273 274 274 275 275 274 273 273 275 276 277 277 277 276 276 277 278
283 282 282 283 284 284 285 285 285 284 281 281 279 277 274 273 271 271 271 271 272 273 274 276 275 273 273 273 273 273 273 272 273 274 274 276 277 276 275 275 275 276 278
285 285 285 286 286 286 287 286 285 284 283 284 284 281 277 275 273 274 274 273 272 273 275 276 276 274 274 274 274 274 273 272 273 274 275 276 276 276 275 274 275 275 276
287 288 288 288 288 289 288 287 286 285 286 286 286 283 279 278 276 276 276 276 275 276 276 275 275 275 275 276 275 274 273 273 274 274 275 276 276 276 276 276 276 276 276
289 290 290 291 291 291 290 287 286 286 287 287 286 284 282 280 278 278 278 278 277 276 276 275 275 275 276 276 275 274 274 274 274 275 276 276 276 276 277 277 277 277 277
290 290 291 292 293 292 290 288 288 289 289 288 287 286 286 284 282 281 280 279 278 278 277 276 275 275 276 275 275 275 274 275 276 277 277 276 277 277 277 277 277 277 277
289 290 291 293 293 292 291 290 289 290 291 291 289 287 286 285 284 282 281 281 281 280 280 278 277 277 277 277 277 277 277 277 279 279 278 278 279 279 278 278 276 277 277
288 289 290 291 291 291 291 291 291 291 292 293 291 289 287 286 285 284 282 280 281 282 282 281 280 280 280 279 279 278 278 279 279 280 280 281 282 281 279 278 277 277 277
287 288 289 290 291 291 291 291 291 291 291 292 292 290 289 289 288 288 286 284 283 284 285 284 283 282 281 280 280 281 281 281 281 282 282 284 284 282 280 278 277 276 276
285 286 288 289 291 291 290 290 291 292 293 293 294 293 292 292 292 291 289 288 286 284 285 286 285 284 283 282 281 281 281 281 282 283 284 284 283 281 280 279 278 277 274
285 286 287 288 288 289 288 288 289 290 291 292 293 293 293 292 291 290 289 288 287 286 285 285 285 284 284 283 283 282 282 283 284 285 284 283 282 280 280 279 277 276 274
285 286 286 286 286 286 286 286 288 290 290 290 291 292 291 291 290 288 289 289 287 286 286 286 286 286 285 285 284 283 283 284 283 282 283 283 281 280 279 276 273 274 273
287 287 287 287 286 285 285 286 287 288 289 290 290 291 292 291 290 290 290 290 289 288 287 288 287 287 287 286 285 284 283 284 284 282 282 281 279 277 275 274 272 273 273
Height
5649 5651 5653 5654 5656 5657 5658 5660 5660 5661 5661 5662 5662 5661 5661 5661 5660 5660 5660 5660 5660 5659 5659 5659 5659 5658 5658 5658 5658 5657 5657 5657 5657 5657 5655 5654 5652 5651 5650 5648 5647 5646 5645
5639 5640 5641 5643 5644 5645 5647 5648 5648 5649 5650 5650 5649 5649 5648 5648 5648 5647 5647 5647 5646 5646 5646 5646 5646 5646 5646 5646 5645 5645 5645 5644 5644 5644 5643 5641 5640 5638 5637 5636 5635 5634 5632
5628 5629 5631 5632 5633 5634 5634 5635 5636 5637 5637 5637 5637 5636 5636 5635 5634 5634 5633 5633 5633 5633 5633 5633 5633 5632 5633 5632 5632 5632 5631 5631 5630 5630 5630 5629 5627 5625 5624 5623 5622 5621 5619
5619 5619 5620 5621 5621 5622 5623 5623 5624 5624 5624 5624 5624 5623 5623 5622 5621 5620 5620 5619 5619 5619 5619 5619 5619 5619 5619 5619 5619 5618 5618 5617 5617 5616 5616 5615 5614 5613 5611 5611 5610 5608 5607
5608 5608 5609 5610 5610 5610 5611 5611 5611 5611 5611 5611 5610 5610 5609 5608 5607 5606 5606 5606 5606 5606 5606 5606 5605 5605 5605 5605 5605 5605 5604 5604 5603 5602 5602 5602 5601 5600 5599 5597 5597 5596 5594
5597 5597 5598 5599 5599 5599 5599 5599 5599 5598 5598 5598 5597 5597 5596 5595 5594 5593 5592 5592 5592 5592 5593 5592 5592 5592 5591 5591 5591 5590 5590 5590 5589 5589 5589 5588 5588 5586 5585 5584 5583 5582 5582
5587 5587 5587 5587 5587 5587 5587 5586 5586 5586 5585 5585 5584 5583 5582 5581 5580 5579 5578 5579 5579 5579 5579 5579 5579 5579 5578 5578 5577 5577 5576 5575 5575 5575 5575 5574 5574 5573 5572 5571 5569 5568 5567
5577 5576 5576 5575 5575 5575 5574 5574 5573 5573 5572 5571 5571 5570 5569 5568 5567 5566 5565 5565 5566 5566 5566 5567 5567 5566 5565 5565 5564 5564 5563 5563 5562 5561 5561 5561 5560 5559 5558 5557 5555 5555 5554
5566 5566 5565 5564 5563 5563 5562 5561 5561 5560 5559 5558 5557 5556 5556 5555 5554 5553 5553 5553 5553 5554 5554 5554 5554 5554 5553 5552 5552 5552 5551 5550 5548 5547 5547 5547 5546 5545 5544 5543 5542 5541 5541
5557 5556 5555 5554 5553 5552 5551 5549 5548 5547 5546 5544 5543 5543 5542 5542 5541 5541 5541 5541 5542 5542 5542 5541 5541 5541 5540 5539 5538 5538 5538 5537 5536 5535 5534 5533 5532 5531 5530 5529 5529 5528 5527
5546 5545 5544 5543 5542 5541 5539 5538 5536 5534 5533 5532 5531 5530 5530 5529 5529 5529 5529 5529 5530 5530 5530 5529 5529 5527 5526 5526 5525 5525 5525 5523 5522 5522 5521 5521 5520 5520 5518 5517 5516 5515 5515
5536 5535 5534 5532 5531 5530 5528 5527 5525 5523 5521 5520 5519 5518 5518 5517 5517 5517 5517 5518 5518 5518 5518 5518 5516 5515 5514 5513 5513 5512 5511 5510 5510 5509 5509 5509 5508 5507 5506 5505 5504 5503 5502
5526 5525 5523 5522 5521 5519 5518 5516 5514 5512 5510 5509 5508 5507 5507 5506 5506 5505 5505 5506 5506 5506 5506 5505 5504 5503 5502 5501 5500 5499 5498 5498 5497 5497 5497 5497 5496 5495 5493 5493 5491 5490 5489
5516 5515 5513 5512 5510 5509 5507 5505 5504 5501 5500 5498 5498 5497 5496 5495 5495 5494 5494 5494 5494 5494 5493 5493 5492 5491 5490 5489 5488 5487 5486 5486 5486 5486 5485 5485 5484 5483 5482 5481 5480 5479 5478
5507 5505 5504 5502 5501 5499 5497 5495 5493 5491 5490 5489 5488 5487 5486 5485 5485 5484 5483 5483 5482 5482 5481 5480 5479 5478 5477 5477 5476 5475 5475 5474 5474 5474 5474 5473 5472 5471 5471 5470 5469 5468 5467
5498 5497 5495 5494 5492 5490 5488 5485 5483 5482 5480 5479 5477 5476 5475 5474 5474 5473 5472 5472 5471 5470 5469 5468 5468 5467 5466 5465 5465 5464 5463 5463 5463 5462 5462 5462 5461 5460 5460 5458 5457 5457 5456
5491 5489 5487 5485 5483 5481 5479 5477 5475 5473 5471 5469 5468 5466 5465 5464 5464 5463 5461 5460 5459 5458 5458 5457 5456 5456 5455 5454 5453 5453 5453 5452 5452 5451 5451 5451 5450 5449 5448 5448 5447 5446 5445
5483 5481 5479 5477 5475 5473 5470 5468 5466 5465 5463 5461 5459 5457 5455 5454 5453 5452 5451 5450 5449 5447 5446 5445 5445 5444 5443 5443 5442 5442 5441 5441 5440 5440 5440 5439 5439 5438 5437 5437 5436 5435 5435
5475 5473 5471 5469 5467 5464 5462 5460 5458 5456 5455 5453 5451 5448 5446 5445 5443 5442 5441 5440 5438 5437 5436 5435 5434 5434 5433 5432 5432 5431 5431 5430 5430 5429 5429 5428 5428 5427 5426 5426 5425 5424 5424
5467 5466 5463 5461 5459 5457 5455 5453 5451 5449 5447 5445 5443 5441 5439 5437 5435 5433 5432 5430 5429 5428 5427 5426 5425 5424 5423 5423 5422 5422 5421 5421 5420 5419 5419 5418 5417 5416 5416 5415 5415 5414 5414
5460 5458 5456 5454 5452 5449 5447 5445 5443 5441 5439 5437 5435 5433 5431 5429 5427 5426 5424 5423 5421 5420 5419 5418 5417 5416 5415 5414 5413 5413 5412 5411 5410 5410 5409 5408 5407 5407 5406 5406 5405 5405 5405
5452 5450 5448 5446 5444 5442 5440 5438 5436 5434 5432 5430 5428 5425 5423 5421 5420 5418 5417 5415 5414 5412 5411 5410 5409 5408 5407 5406 5405 5404 5403 5402 5402 5401 5400 5400 5399 5398 5397 5397 5397 5397 5397
5443 5442 5440 5439 5437 5435 5433 5431 5429 5427 5425 5423 5421 5419 5416 5414 5413 5411 5410 5408 5406 5405 5404 5402 5401 5400 5399 5398 5397 5396 5396 5395 5394 5393 5393 5392 5391 5390 5390 5389 5390 5390 5390
5435 5434 5432 5431 5429 5427 5426 5424 5422 5420 5419 5416 5414 5412 5410 5408 5406 5404 5403 5401 5400 5398 5397 5395 5394 5393 5391 5391 5390 5389 5388 5387 5386 5386 5385 5384 5384 5383 5383 5383 5383 5383 5383
5427 5426 5424 5423 5421 5420 5418 5416 5415 5413 5411 5409 5407 5405 5403 5401 5399 5398 5396 5395 5393 5392 5390 5389 5387 5386 5385 5384 5383 5382 5381 5380 5379 5378 5378 5377 5377 5377 5377 5377 5377 5377 5377
5419 5418 5416 5414 5413 5411 5410 5408 5407 5405 5404 5402 5400 5398 5397 5395 5393 5391 5389 5388 5386 5385 5384 5383 5381 5380 5379 5378 5377 5375 5375 5374 5373 5372 5372 5371 5371 5371 5371 5371 5371 5372 5372